Flag for Germany Weather past 2 weeks in Frankenthal (Pfalz), Rhineland-Palatinate, Germany

Now
82 °F

Sunny.


Feels Like: 81 °F
Forecast: 59 / 78 °F
Wind: 3 mph from North

Location: Baden Wurttemberg - Neuostheim

Current Time: Jul 24, 2014 at 6:00:52 PM

Latest Report: Jul 24, 2014 at 5:20 PM


Visibility: 10 mi

Pressure: 29.89 "Hg

Humidity: 35%

Dew point: 52 °F

Location of Frankenthal (Pfalz)Location

Historic Weather in Frankenthal (Pfalz) — Graph

°F

Frankenthal (Pfalz) temperature yesterday

Maximum temperature yesterday: 86 °F (at 4:20 PM)
Minimum temperature yesterday: 66 °F (at 5:50 AM)
Average temperature yesterday: 79 °F

Past Weeks' High & Low Weather Summary

 TemperatureHumidityPressure
High93 °F (Jul 18, 4:50 PM)100% (Jul 11, 5:20 AM)30.18 "Hg (Jul 11, 5:20 AM)
Low55 °F (Jul 9, 8:20 PM)20% (Jul 18, 5:50 PM)29.74 "Hg (Jul 9, 6:50 PM)
Average73 °F63%29.96 "Hg
* Reported Jul 9 4:20 PM — Jul 24 4:50 PM, Frankenthal (Pfalz), Weather by CustomWeather, © 2014

Note: Actual official high and low records may vary slightly from our data, if they occured in-between our weather recording intervals... More about our weather records

Advertising

Frankenthal (Pfalz) weather history for previous 24 hours

 ConditionsComfort  
Time TempWeatherWind HumidityBarometerVisibility
4:50 PM
Jul 24
81 °FPassing clouds.5 mph37%29.89 "HgN/A
4:20 PM82 °FPassing clouds.8 mph37%29.89 "HgN/A
3:50 PM81 °FPassing clouds.8 mph39%29.89 "HgN/A
3:20 PM81 °FSunny.7 mph37%29.89 "Hg10 mi
2:50 PM79 °FPassing clouds.10 mph39%29.89 "HgN/A
2:20 PM81 °FPassing clouds.7 mph37%29.89 "HgN/A
1:50 PM81 °FSunny.8 mph39%29.92 "Hg10 mi
1:20 PM79 °FPassing clouds.8 mph39%29.92 "HgN/A
12:50 PM77 °FPassing clouds.7 mph47%29.92 "HgN/A
12:20 PM79 °FPassing clouds.7 mph39%29.92 "HgN/A
11:50 AM79 °FPassing clouds.7 mph45%29.92 "HgN/A
11:20 AM77 °FPassing clouds.8 mph44%29.92 "HgN/A
10:50 AM75 °FPassing clouds.7 mph50%29.92 "HgN/A
10:20 AM75 °FPassing clouds.7 mph50%29.92 "HgN/A
9:50 AM75 °FPassing clouds.6 mph50%29.92 "HgN/A
9:20 AM72 °FPassing clouds.6 mph57%29.92 "HgN/A
8:50 AM70 °FPassing clouds.7 mph64%29.92 "HgN/A
8:20 AM68 °FPassing clouds.7 mph69%29.92 "HgN/A
7:50 AM68 °FPassing clouds.6 mph69%29.92 "HgN/A
7:20 AM66 °FPassing clouds.5 mph73%29.92 "HgN/A
6:50 AM66 °FSunny.6 mph68%29.92 "Hg10 mi
6:20 AM64 °FClear.6 mph73%29.92 "Hg10 mi
5:50 AM64 °FClear.6 mph73%29.89 "Hg10 mi
9:20 PM
Jul 23
79 °FSunny.5 mph45%29.92 "Hg10 mi
8:50 PM81 °FSunny.6 mph42%29.92 "Hg10 mi
8:20 PM82 °FSunny.8 mph37%29.92 "Hg10 mi
7:50 PM84 °FPassing clouds.10 mph33%29.92 "HgN/A
7:20 PM84 °FSunny.9 mph35%29.92 "Hg10 mi
6:50 PM84 °FPassing clouds.9 mph35%29.92 "HgN/A
6:20 PM84 °FSunny.15 mph35%29.92 "Hg10 mi
Weather by CustomWeather, © 2014

See weather overviewHow to use our weather pages